Kingman, AZ

9:54 PM MST on January 17, 2018 (GMT -0700)
Kingman

Weather History for KIGM - May, 2013

Change the Weather History Date:

Tuesday, May 28, 2013

  Actual Average Record
Temperature  
Mean Temperature 72 °F 72 °F  
Max Temperature 86 °F 89 °F 104 °F (2003)
Min Temperature 58 °F 56 °F 35 °F (1918)
Degree Days  
Heating Degree Days 0 1  
Month to date heating degree days 18 53  
Since 1 July heating degree days 2899 3099  
Cooling Degree Days 7 8  
Month to date cooling degree days 150 143  
Year to date cooling degree days 190 174  
Growing Degree Days 22 (Base 50)    
Moisture  
Dew Point 31 °F    
Average Humidity 22    
Maximum Humidity 30    
Minimum Humidity 14    
Precipitation  
Precipitation 0.00 in 0.00 in 0.32 in (1990)
Month to date precipitation T 0.12  
Year to date precipitation 1.18 3.45  
Sea Level Pressure  
Sea Level Pressure 29.55 in    
Wind  
Wind Speed 13 mph (SSW)    
Max Wind Speed 20 mph    
Max Gust Speed 26 mph    
Visibility 10 miles    
Events      
T = Trace of Precipitation, MM = Missing Value Source: NWS Daily Summary

Daily Weather History Graph

Daily Weather History Graph

Search for Another Location

Airport or City:

Trip Planner

Search our weather history database for the weather conditions in past years. The results will help you decide how hot, cold, wet, or windy it might be!

Date:

Astronomy

May. 28, 2013 Rise Set
Actual Time 5:23 AM MST 7:42 PM MST
Civil Twilight 4:54 AM MST 8:11 PM MST
Nautical Twilight 4:18 AM MST 8:47 PM MST
Astronomical Twilight 3:39 AM MST 9:26 PM MST
Moon 11:14 PM MST (5/28) 9:13 AM MST (5/28)
Length of Visible Light 15h 17m
Length of Day
14h 19m
Waning Gibbous, 82% of the Moon is Illuminated
May 28
Waning Gibbous
May 31
Last Quarter
Jun 8
New
Jun 16
First Quarter
Jun 23
Full

Hourly Weather History & Observations

Time (MST) Temp. Dew Point Humidity Pressure Visibility Wind Dir Wind Speed Gust Speed Precip Events Conditions
12:51 AM 66.0 °F 23.0 °F 20% 29.61 in 10.0 mi ESE 8.1 mph - N/A   Clear
1:51 AM 71.1 °F 27.0 °F 19% 29.57 in 10.0 mi SSW 15.0 mph - N/A   Clear
2:51 AM 66.0 °F 28.9 °F 25% 29.57 in 10.0 mi SE 8.1 mph - N/A   Clear
3:51 AM 60.1 °F 28.0 °F 30% 29.58 in 10.0 mi South 5.8 mph - N/A   Clear
4:51 AM 61.0 °F 28.0 °F 29% 29.57 in 10.0 mi SSW 4.6 mph - N/A   Clear
5:51 AM 57.9 °F 27.0 °F 31% 29.57 in 10.0 mi SSE 4.6 mph - N/A   Clear
6:51 AM 69.1 °F 28.9 °F 22% 29.55 in 10.0 mi ESE 6.9 mph - N/A   Unknown
7:51 AM 73.9 °F 28.9 °F 19% 29.75 in 10.0 mi SSW 6.9 mph - N/A   Clear
8:51 AM 75.9 °F 30.0 °F 19% 29.56 in 10.0 mi SW 10.4 mph - N/A   Clear
9:51 AM 80.1 °F 30.9 °F 17% 29.56 in 10.0 mi SSW 20.7 mph 28.8 mph N/A   Clear
10:51 AM 82.0 °F 32.0 °F 16% 29.54 in 10.0 mi South 19.6 mph 28.8 mph N/A   Clear
11:51 AM 84.0 °F 32.0 °F 15% 29.54 in 10.0 mi SW 17.3 mph 28.8 mph N/A   Clear
12:51 PM 86.0 °F 32.0 °F 14% 29.52 in 10.0 mi SW 28.8 mph 40.3 mph N/A   Clear
1:51 PM 84.9 °F 33.1 °F 16% 29.51 in 10.0 mi SSW 23.0 mph 34.5 mph N/A   Clear
2:51 PM 84.9 °F 33.1 °F 16% 29.51 in 10.0 mi SW 24.2 mph 31.1 mph N/A   Clear
3:51 PM 84.0 °F 32.0 °F 15% 29.51 in 10.0 mi WSW 15.0 mph 29.9 mph N/A   Clear
4:51 PM 82.9 °F 32.0 °F 16% 29.50 in 10.0 mi SW 10.4 mph 24.2 mph N/A   Clear
5:51 PM 82.9 °F 33.1 °F 17% 29.50 in 10.0 mi SSW 17.3 mph 24.2 mph N/A   Clear
6:51 PM 81.0 °F 33.1 °F 18% 29.49 in 10.0 mi SSW 18.4 mph - N/A   Unknown
7:51 PM 77.0 °F 34.0 °F 21% 29.50 in 10.0 mi SW 12.7 mph - N/A   Clear
8:51 PM 75.0 °F 34.0 °F 22% 29.50 in 10.0 mi SW 12.7 mph - N/A   Clear
9:51 PM 77.0 °F 34.0 °F 21% 29.52 in 10.0 mi SW 12.7 mph 26.5 mph N/A   Partly Cloudy
10:51 PM 75.0 °F 33.1 °F 22% 29.54 in 10.0 mi North 3.5 mph - N/A   Clear
11:51 PM 69.1 °F 30.0 °F 23% 29.56 in 10.0 mi WNW 4.6 mph - N/A   Clear